Вернуться в каталог

STARLINK-30074

АктивенСвязьVLEO
NORAD 57508·PAYLOAD·🇺🇸 United States

Запущен Aug 7, 2023 с Cape Canaveral Space Force Station

Loading…

Ближайшие Пролёты (ближайшие 24 часа)

TLE

СвежийSource: CelesTrak SupGP

Эпоха: Sep 14, 2026, 21:35 UTC

1 57508C 23113P   26257.89979167  .00000975  00000+0  35285-4 0  2577
2 57508  43.0016  27.6574 0001539 267.2110 345.5490 15.27592433    11

Отслеживайте STARLINK-30074 в реальном времени с AllMySat

Download on the App Store